Time,TemperatureF,DewpointF,PressureIn,WindDirection,WindDirectionDegrees,WindSpeedMPH,WindSpeedGustMPH,Humidity,HourlyPrecipIn,Conditions,Clouds,dailyrainin,SoftwareType,DateUTC
2013-02-15 00:02:00,25.0,-99.9,-100.00,North,-999,-999.0,-999.0,-999,-99.99,,,0.02,,2013-02-15 07:02:00,
2013-02-15 00:11:00,25.0,-99.9,-100.00,North,-999,-999.0,-999.0,-999,-99.99,,,0.02,,2013-02-15 07:11:00,
2013-02-15 00:22:00,25.0,-99.9,-100.00,North,-999,-999.0,-999.0,-999,-99.99,,,0.02,,2013-02-15 07:22:00,
2013-02-15 00:30:00,22.0,-99.9,-100.00,North,-999,-999.0,-999.0,-999,-99.99,,,-99.99,,2013-02-15 07:30:00,
2013-02-15 01:02:00,22.0,-99.9,-100.00,North,-999,-999.0,-999.0,-999,-99.99,,,-99.99,,2013-02-15 08:02:00,
2013-02-15 01:11:00,22.0,-99.9,-100.00,North,-999,-999.0,-999.0,-999,-99.99,,,-99.99,,2013-02-15 08:11:00,
2013-02-15 01:22:00,22.0,-99.9,-100.00,North,-999,-999.0,-999.0,-999,-99.99,,,-99.99,,2013-02-15 08:22:00,
2013-02-15 02:30:00,18.0,-99.9,-100.00,North,-999,-999.0,-999.0,-999,0.01,,,0.01,,2013-02-15 09:30:00,
2013-02-15 03:02:00,18.0,-99.9,-100.00,North,-999,-999.0,-999.0,-999,0.01,,,0.01,,2013-02-15 10:02:00,
2013-02-15 03:11:00,18.0,-99.9,-100.00,North,-999,-999.0,-999.0,-999,0.01,,,0.01,,2013-02-15 10:11:00,
2013-02-15 03:22:00,18.0,-99.9,-100.00,North,-999,-999.0,-999.0,-999,0.01,,,0.01,,2013-02-15 10:22:00,
2013-02-15 04:30:00,14.0,-99.9,-100.00,North,-999,-999.0,-999.0,-999,-99.99,,,-99.99,,2013-02-15 11:30:00,
2013-02-15 05:02:00,14.0,-99.9,-100.00,North,-999,-999.0,-999.0,-999,-99.99,,,-99.99,,2013-02-15 12:02:00,
2013-02-15 05:11:00,14.0,-99.9,-100.00,North,-999,-999.0,-999.0,-999,-99.99,,,-99.99,,2013-02-15 12:11:00,
2013-02-15 05:22:00,14.0,-99.9,-100.00,North,-999,-999.0,-999.0,-999,-99.99,,,-99.99,,2013-02-15 12:22:00,
2013-02-15 05:30:00,13.0,-99.9,-100.00,North,-999,-999.0,-999.0,-999,0.02,,,0.01,,2013-02-15 12:30:00,
2013-02-15 06:02:00,13.0,-99.9,-100.00,North,-999,-999.0,-999.0,-999,0.02,,,0.01,,2013-02-15 13:02:00,
2013-02-15 06:12:00,13.0,-99.9,-100.00,North,-999,-999.0,-999.0,-999,0.02,,,0.01,,2013-02-15 13:12:00,
2013-02-15 06:22:00,13.0,-99.9,-100.00,North,-999,-999.0,-999.0,-999,0.02,,,0.01,,2013-02-15 13:22:00,
2013-02-15 06:30:00,11.0,-99.9,-100.00,North,-999,-999.0,-999.0,-999,-99.99,,,0.00,,2013-02-15 13:30:00,
2013-02-15 07:02:00,11.0,-99.9,-100.00,North,-999,-999.0,-999.0,-999,-99.99,,,0.00,,2013-02-15 14:02:00,
2013-02-15 07:12:00,11.0,-99.9,-100.00,North,-999,-999.0,-999.0,-999,-99.99,,,0.00,,2013-02-15 14:12:00,
2013-02-15 07:22:00,11.0,-99.9,-100.00,North,-999,-999.0,-999.0,-999,-99.99,,,0.00,,2013-02-15 14:22:00,
2013-02-15 07:30:00,10.0,-99.9,-100.00,North,-999,-999.0,-999.0,-999,0.04,,,0.02,,2013-02-15 14:30:00,
2013-02-15 08:02:00,10.0,-99.9,-100.00,North,-999,-999.0,-999.0,-999,0.04,,,0.02,,2013-02-15 15:02:00,
2013-02-15 08:12:00,10.0,-99.9,-100.00,North,-999,-999.0,-999.0,-999,0.04,,,0.02,,2013-02-15 15:12:00,
2013-02-15 08:22:00,10.0,-99.9,-100.00,North,-999,-999.0,-999.0,-999,0.04,,,0.02,,2013-02-15 15:22:00,
2013-02-15 08:30:00,10.0,-99.9,-100.00,North,-999,-999.0,-999.0,-999,-99.99,,,0.03,,2013-02-15 15:30:00,
2013-02-15 09:02:00,10.0,-99.9,-100.00,North,-999,-999.0,-999.0,-999,-99.99,,,0.03,,2013-02-15 16:02:00,
2013-02-15 09:12:00,10.0,-99.9,-100.00,North,-999,-999.0,-999.0,-999,-99.99,,,0.03,,2013-02-15 16:12:00,
2013-02-15 09:22:00,10.0,-99.9,-100.00,North,-999,-999.0,-999.0,-999,-99.99,,,0.03,,2013-02-15 16:22:00,
2013-02-15 09:30:00,14.0,-99.9,-100.00,North,-999,-999.0,-999.0,-999,-99.99,,,0.01,,2013-02-15 16:30:00,
2013-02-15 10:01:00,14.0,-99.9,-100.00,North,-999,-999.0,-999.0,-999,-99.99,,,0.01,,2013-02-15 17:01:00,
2013-02-15 10:11:00,14.0,-99.9,-100.00,North,-999,-999.0,-999.0,-999,-99.99,,,0.01,,2013-02-15 17:11:00,
2013-02-15 10:22:00,14.0,-99.9,-100.00,North,-999,-999.0,-999.0,-999,-99.99,,,0.01,,2013-02-15 17:22:00,
2013-02-15 10:30:00,22.0,-99.9,-100.00,North,-999,-999.0,-999.0,-999,-99.99,,,0.00,,2013-02-15 17:30:00,
2013-02-15 11:02:00,22.0,-99.9,-100.00,North,-999,-999.0,-999.0,-999,-99.99,,,0.00,,2013-02-15 18:02:00,
2013-02-15 11:12:00,22.0,-99.9,-100.00,North,-999,-999.0,-999.0,-999,-99.99,,,0.00,,2013-02-15 18:12:00,
2013-02-15 11:22:00,22.0,-99.9,-100.00,North,-999,-999.0,-999.0,-999,-99.99,,,0.00,,2013-02-15 18:22:00,
2013-02-15 11:30:00,37.0,-99.9,-100.00,North,-999,-999.0,-999.0,-999,0.03,,,0.04,,2013-02-15 18:30:00,
2013-02-15 12:02:00,37.0,-99.9,-100.00,North,-999,-999.0,-999.0,-999,0.03,,,0.04,,2013-02-15 19:02:00,
2013-02-15 12:30:00,41.0,-99.9,-100.00,North,-999,-999.0,-999.0,-999,-99.99,,,-99.99,,2013-02-15 19:30:00,
2013-02-15 13:02:00,41.0,-99.9,-100.00,North,-999,-999.0,-999.0,-999,-99.99,,,-99.99,,2013-02-15 20:02:00,
2013-02-15 13:11:00,41.0,-99.9,-100.00,North,-999,-999.0,-999.0,-999,-99.99,,,-99.99,,2013-02-15 20:11:00,
2013-02-15 13:22:00,41.0,-99.9,-100.00,North,-999,-999.0,-999.0,-999,-99.99,,,-99.99,,2013-02-15 20:22:00,
2013-02-15 13:30:00,48.0,-99.9,-100.00,North,-999,-999.0,-999.0,-999,0.05,,,-99.99,,2013-02-15 20:30:00,
2013-02-15 14:02:00,48.0,-99.9,-100.00,North,-999,-999.0,-999.0,-999,0.05,,,-99.99,,2013-02-15 21:02:00,
2013-02-15 14:11:00,48.0,-99.9,-100.00,North,-999,-999.0,-999.0,-999,0.05,,,-99.99,,2013-02-15 21:11:00,
2013-02-15 14:22:00,48.0,-99.9,-100.00,North,-999,-999.0,-999.0,-999,0.05,,,-99.99,,2013-02-15 21:22:00,
2013-02-15 15:02:00,55.0,-99.9,-100.00,North,-999,-999.0,-999.0,-999,-99.99,,,-99.99,,2013-02-15 22:02:00,
2013-02-15 16:03:00,48.0,-99.9,-100.00,North,-999,-999.0,-999.0,-999,0.02,,,0.05,,2013-02-15 23:03:00,
2013-02-15 16:11:00,48.0,-99.9,-100.00,North,-999,-999.0,-999.0,-999,0.02,,,0.05,,2013-02-15 23:11:00,
2013-02-15 16:22:00,48.0,-99.9,-100.00,North,-999,-999.0,-999.0,-999,0.02,,,0.05,,2013-02-15 23:22:00,
2013-02-15 16:30:00,48.0,-99.9,-100.00,North,-999,-999.0,-999.0,-999,-99.99,,,-99.99,,2013-02-15 23:30:00,
2013-02-15 17:02:00,48.0,-99.9,-100.00,North,-999,-999.0,-999.0,-999,-99.99,,,-99.99,,2013-02-16 00:02:00,
2013-02-15 17:12:00,48.0,-99.9,-100.00,North,-999,-999.0,-999.0,-999,-99.99,,,-99.99,,2013-02-16 00:12:00,
2013-02-15 17:22:00,48.0,-99.9,-100.00,North,-999,-999.0,-999.0,-999,-99.99,,,-99.99,,2013-02-16 00:22:00,
2013-02-15 17:30:00,44.0,-99.9,-100.00,North,-999,-999.0,-999.0,-999,0.02,,,-99.99,,2013-02-16 00:30:00,
2013-02-15 18:03:00,44.0,-99.9,-100.00,North,-999,-999.0,-999.0,-999,0.02,,,-99.99,,2013-02-16 01:03:00,
2013-02-15 18:11:00,44.0,-99.9,-100.00,North,-999,-999.0,-999.0,-999,0.02,,,-99.99,,2013-02-16 01:11:00,
2013-02-15 18:22:00,44.0,-99.9,-100.00,North,-999,-999.0,-999.0,-999,0.02,,,-99.99,,2013-02-16 01:22:00,
2013-02-15 19:01:00,36.0,-99.9,-100.00,North,-999,-999.0,-999.0,-999,0.02,,,0.04,,2013-02-16 02:01:00,
2013-02-15 19:11:00,36.0,-99.9,-100.00,North,-999,-999.0,-999.0,-999,0.00,,,0.03,,2013-02-16 02:11:00,
2013-02-15 19:22:00,36.0,-99.9,-100.00,North,-999,-999.0,-999.0,-999,0.00,,,0.03,,2013-02-16 02:22:00,
2013-02-15 19:30:00,30.0,-99.9,-100.00,North,-999,-999.0,-999.0,-999,-99.99,,,-99.99,,2013-02-16 02:30:00,
2013-02-15 19:32:00,36.0,-99.9,-100.00,North,-999,-999.0,-999.0,-999,0.00,,,0.03,,2013-02-16 02:32:00,
2013-02-15 19:42:00,36.0,-99.9,-100.00,North,-999,-999.0,-999.0,-999,0.00,,,0.03,,2013-02-16 02:42:00,
2013-02-15 20:02:00,30.0,-99.9,-100.00,North,-999,-999.0,-999.0,-999,-99.99,,,-99.99,,2013-02-16 03:02:00,
2013-02-15 20:11:00,30.0,-99.9,-100.00,North,-999,-999.0,-999.0,-999,-99.99,,,-99.99,,2013-02-16 03:11:00,
2013-02-15 20:22:00,30.0,-99.9,-100.00,North,-999,-999.0,-999.0,-999,-99.99,,,-99.99,,2013-02-16 03:22:00,
2013-02-15 20:30:00,27.0,-99.9,-100.00,North,-999,-999.0,-999.0,-999,0.01,,,0.03,,2013-02-16 03:30:00,
2013-02-15 21:02:00,27.0,-99.9,-100.00,North,-999,-999.0,-999.0,-999,0.01,,,0.03,,2013-02-16 04:02:00,
2013-02-15 21:11:00,27.0,-99.9,-100.00,North,-999,-999.0,-999.0,-999,0.01,,,0.03,,2013-02-16 04:11:00,
2013-02-15 21:22:00,27.0,-99.9,-100.00,North,-999,-999.0,-999.0,-999,0.01,,,0.03,,2013-02-16 04:22:00,
2013-02-15 21:30:00,25.0,-99.9,-100.00,North,-999,-999.0,-999.0,-999,-99.99,,,-99.99,,2013-02-16 04:30:00,
2013-02-15 22:02:00,25.0,-99.9,-100.00,North,-999,-999.0,-999.0,-999,-99.99,,,-99.99,,2013-02-16 05:02:00,
2013-02-15 22:12:00,25.0,-99.9,-100.00,North,-999,-999.0,-999.0,-999,-99.99,,,-99.99,,2013-02-16 05:12:00,
2013-02-15 22:22:00,25.0,-99.9,-100.00,North,-999,-999.0,-999.0,-999,-99.99,,,-99.99,,2013-02-16 05:22:00,
2013-02-15 22:30:00,23.0,-99.9,-100.00,North,-999,-999.0,-999.0,-999,0.00,,,-99.99,,2013-02-16 05:30:00,
2013-02-15 23:02:00,23.0,-99.9,-100.00,North,-999,-999.0,-999.0,-999,0.00,,,-99.99,,2013-02-16 06:02:00,
2013-02-15 23:11:00,23.0,-99.9,-100.00,North,-999,-999.0,-999.0,-999,0.00,,,-99.99,,2013-02-16 06:11:00,
2013-02-15 23:22:00,23.0,-99.9,-100.00,North,-999,-999.0,-999.0,-999,0.00,,,-99.99,,2013-02-16 06:22:00,